Soldotna, AK

3:25 PM AKDT on June 28, 2017 (GMT -0800)
Soldotna

Weather History for PASX - May, 2014

Change the Weather History Date:

Monday, May 19, 2014

  Actual Average Record
Temperature  
Mean Temperature 47 °F -  
Max Temperature 57 °F 52 °F 73 °F (2002)
Min Temperature 37 °F 36 °F 23 °F (2006)
Degree Days  
Heating Degree Days 18    
Moisture  
Dew Point 21 °F    
Average Humidity 33    
Maximum Humidity 52    
Minimum Humidity 23    
Precipitation  
Precipitation 0.00 in - - ()
Sea Level Pressure  
Sea Level Pressure 29.80 in    
Wind  
Wind Speed 9 mph (North)    
Max Wind Speed 20 mph    
Max Gust Speed 30 mph    
Visibility 10 miles    
Events      
Averages and records for this station are not official NWS values.
T = Trace of Precipitation, MM = Missing Value Source: NWS Daily Summary

Daily Weather History Graph

Daily Weather History Graph

Search for Another Location

Airport or City:

Trip Planner

Search our weather history database for the weather conditions in past years. The results will help you decide how hot, cold, wet, or windy it might be!

Date:

Astronomy

May. 19, 2014 Rise Set
Actual Time 5:12 AM AKDT 10:49 PM AKDT
Civil Twilight 4:02 AM AKDT 12:01 AM AKDT
Nautical Twilight 2:33 AM AKDT 1:28 AM AKDT
Astronomical Twilight Sun does not set Sun does not set
Moon 2:15 AM AKDT (5/19) 10:55 AM AKDT (5/19)
Length of Visible Light 19h 58m
Length of Day
17h 36m
Waning Gibbous, 69% of the Moon is Illuminated
May 19
Waning Gibbous
May 21
Last Quarter
May 28
New
Jun 5
First Quarter
Jun 12
Full

Hourly Weather History & Observations

Time (AKDT) Temp. Windchill Dew Point Humidity Pressure Visibility Wind Dir Wind Speed Gust Speed Precip Events Conditions
12:16 AM 46.4 °F 42.4 °F 21.2 °F 37% 29.79 in 10.0 mi NE 8.1 mph - N/A   Overcast
12:36 AM 46.4 °F 42.4 °F 21.2 °F 37% 29.79 in 10.0 mi NE 8.1 mph 16.1 mph N/A   Overcast
12:56 AM 46.4 °F 42.9 °F 21.2 °F 37% 29.80 in 10.0 mi NE 6.9 mph 16.1 mph N/A   Overcast
1:16 AM 46.4 °F 44.3 °F 21.2 °F 37% 29.80 in 10.0 mi NNE 4.6 mph - N/A   Overcast
1:36 AM 46.4 °F 44.3 °F 21.2 °F 37% 29.80 in 10.0 mi NNE 4.6 mph - N/A   Overcast
1:56 AM 46.4 °F 41.9 °F 21.2 °F 37% 29.80 in 10.0 mi North 9.2 mph - N/A   Overcast
2:16 AM 46.4 °F 42.4 °F 21.2 °F 37% 29.81 in 10.0 mi North 8.1 mph - N/A   Overcast
2:36 AM 44.6 °F 41.4 °F 21.2 °F 39% 29.81 in 10.0 mi North 5.8 mph - N/A   Mostly Cloudy
2:56 AM 44.6 °F 40.7 °F 21.2 °F 39% 29.80 in 10.0 mi North 6.9 mph - N/A   Scattered Clouds
3:16 AM 44.6 °F - 21.2 °F 39% 29.80 in 10.0 mi Calm Calm - N/A   Clear
3:36 AM 42.8 °F 41.1 °F 21.2 °F 42% 29.80 in 10.0 mi North 3.5 mph - N/A   Clear
3:56 AM 42.8 °F - 21.2 °F 42% 29.80 in 10.0 mi Calm Calm - N/A   Clear
4:16 AM 42.8 °F - 21.2 °F 42% 29.80 in 10.0 mi Calm Calm - N/A   Mostly Cloudy
4:36 AM 42.8 °F - 21.2 °F 42% 29.80 in 10.0 mi Calm Calm - N/A   Scattered Clouds
5:56 AM 37.4 °F - 21.2 °F 52% 29.80 in 10.0 mi Calm Calm - N/A   Partly Cloudy
6:56 AM 42.8 °F 38.0 °F 21.2 °F 42% 29.80 in 10.0 mi North 8.1 mph - N/A   Overcast
7:16 AM 44.6 °F 40.2 °F 21.2 °F 39% 29.80 in 10.0 mi North 8.1 mph 18.4 mph N/A   Overcast
7:36 AM 44.6 °F 39.7 °F 21.2 °F 39% 29.80 in 10.0 mi North 9.2 mph 19.6 mph N/A   Overcast
7:56 AM 44.6 °F 39.7 °F 21.2 °F 39% 29.80 in 10.0 mi North 9.2 mph 18.4 mph N/A   Overcast
8:16 AM 44.6 °F 40.7 °F 21.2 °F 39% 29.80 in 10.0 mi North 6.9 mph - N/A   Overcast
8:36 AM 44.6 °F 39.7 °F 21.2 °F 39% 29.80 in 10.0 mi North 9.2 mph 16.1 mph N/A   Overcast
8:56 AM 44.6 °F 39.7 °F 21.2 °F 39% 29.80 in 10.0 mi North 9.2 mph - N/A   Overcast
9:16 AM 44.6 °F 39.2 °F 21.2 °F 39% 29.80 in 10.0 mi North 10.4 mph 17.3 mph N/A   Overcast
9:36 AM 44.6 °F 39.7 °F 21.2 °F 39% 29.79 in 10.0 mi North 9.2 mph 20.7 mph N/A   Overcast
10:16 AM 46.4 °F 40.4 °F 21.2 °F 37% 29.80 in 10.0 mi North 13.8 mph 20.7 mph N/A   Overcast
10:36 AM 46.4 °F 41.5 °F 21.2 °F 37% 29.80 in 10.0 mi North 10.4 mph 20.7 mph N/A   Overcast
10:56 AM 46.4 °F 41.5 °F 19.4 °F 34% 29.80 in 10.0 mi North 10.4 mph 18.4 mph N/A   Overcast
11:16 AM 46.4 °F 40.4 °F 19.4 °F 34% 29.80 in 10.0 mi North 13.8 mph 24.2 mph N/A   Overcast
11:36 AM 48.2 °F - 21.2 °F 34% 29.80 in 10.0 mi North 13.8 mph 23.0 mph N/A   Overcast
11:56 AM 48.2 °F - 21.2 °F 34% 29.80 in 10.0 mi NNE 10.4 mph 18.4 mph N/A   Overcast
12:16 PM 48.2 °F - 21.2 °F 34% 29.79 in 10.0 mi North 6.9 mph 21.9 mph N/A   Overcast
12:36 PM 50.0 °F - 21.2 °F 32% 29.79 in 10.0 mi NNW 10.4 mph 21.9 mph N/A   Overcast
12:56 PM 50.0 °F - 21.2 °F 32% 29.79 in 10.0 mi North 12.7 mph 25.3 mph N/A   Overcast
1:16 PM 51.8 °F - 21.2 °F 30% 29.78 in 10.0 mi North 13.8 mph 23.0 mph N/A   Mostly Cloudy
1:36 PM 53.6 °F - 21.2 °F 28% 29.78 in 10.0 mi North 16.1 mph 24.2 mph N/A   Mostly Cloudy
1:56 PM 53.6 °F - 21.2 °F 28% 29.78 in 10.0 mi North 16.1 mph 24.2 mph N/A   Overcast
2:16 PM 53.6 °F - 21.2 °F 28% 29.78 in 10.0 mi North 12.7 mph 29.9 mph N/A   Mostly Cloudy
2:56 PM 55.4 °F - 21.2 °F 26% 29.77 in 10.0 mi North 13.8 mph 27.6 mph N/A   Partly Cloudy
3:16 PM 55.4 °F - 21.2 °F 26% 29.77 in 10.0 mi North 9.2 mph 27.6 mph N/A   Partly Cloudy
3:36 PM 55.4 °F - 21.2 °F 26% 29.77 in 10.0 mi North 17.3 mph 27.6 mph N/A   Partly Cloudy
3:56 PM 57.2 °F - 23.0 °F 27% 29.77 in 10.0 mi North 11.5 mph 23.0 mph N/A   Mostly Cloudy
4:16 PM 57.2 °F - 21.2 °F 25% 29.77 in 10.0 mi NNW 13.8 mph 24.2 mph N/A   Overcast
4:36 PM 57.2 °F - 21.2 °F 25% 29.77 in 10.0 mi North 15.0 mph 25.3 mph N/A   Mostly Cloudy
4:56 PM 57.2 °F - 21.2 °F 25% 29.77 in 10.0 mi North 12.7 mph 24.2 mph N/A   Partly Cloudy
5:16 PM 57.2 °F - 19.4 °F 23% 29.78 in 10.0 mi North 16.1 mph 26.5 mph N/A   Clear
5:36 PM 57.2 °F - 19.4 °F 23% 29.77 in 10.0 mi NNE 12.7 mph 29.9 mph N/A   Clear
5:56 PM 57.2 °F - 19.4 °F 23% 29.78 in 10.0 mi North 18.4 mph 26.5 mph N/A   Clear
6:16 PM 57.2 °F - 19.4 °F 23% 29.78 in 10.0 mi North 19.6 mph 26.5 mph N/A   Clear
6:36 PM 57.2 °F - 21.2 °F 25% 29.78 in 10.0 mi North 15.0 mph 28.8 mph N/A   Clear
6:56 PM 55.4 °F - 21.2 °F 26% 29.79 in 10.0 mi NNW 17.3 mph 29.9 mph N/A   Clear
7:16 PM 55.4 °F - 21.2 °F 26% 29.79 in 10.0 mi NNW 13.8 mph 26.5 mph N/A   Clear
7:36 PM 55.4 °F - 21.2 °F 26% 29.79 in 10.0 mi NNW 15.0 mph 27.6 mph N/A   Clear
7:56 PM 55.4 °F - 19.4 °F 25% 29.79 in 10.0 mi NNW 9.2 mph 23.0 mph N/A   Clear
8:16 PM 55.4 °F - 19.4 °F 25% 29.80 in 10.0 mi NNW 12.7 mph 24.2 mph N/A   Clear
8:36 PM 53.6 °F - 19.4 °F 26% 29.81 in 10.0 mi North 13.8 mph 21.9 mph N/A   Clear
8:56 PM 53.6 °F - 19.4 °F 26% 29.80 in 10.0 mi NNW 9.2 mph 20.7 mph N/A   Clear
9:16 PM 53.6 °F - 19.4 °F 26% 29.80 in 10.0 mi NNW 11.5 mph 18.4 mph N/A   Clear
9:36 PM 53.6 °F - 19.4 °F 26% 29.81 in 10.0 mi NNW 12.7 mph 16.1 mph N/A   Clear
9:56 PM 53.6 °F - 19.4 °F 26% 29.81 in 10.0 mi NNW 8.1 mph 19.6 mph N/A   Clear
10:16 PM 51.8 °F - 19.4 °F 28% 29.82 in 10.0 mi NNW 8.1 mph - N/A   Clear
10:36 PM 51.8 °F - 21.2 °F 30% 29.82 in 10.0 mi NNW 6.9 mph - N/A   Clear
10:56 PM 50.0 °F - 21.2 °F 32% 29.82 in 10.0 mi NW 5.8 mph - N/A   Clear
11:16 PM 50.0 °F - 21.2 °F 32% 29.82 in 10.0 mi NNW 9.2 mph - N/A   Clear
11:36 PM 48.2 °F - 21.2 °F 34% 29.83 in 10.0 mi North 6.9 mph - N/A   Clear
11:56 PM 48.2 °F - 21.2 °F 34% 29.83 in 10.0 mi NNW 9.2 mph 17.3 mph N/A   Clear